{"data":{"norad_id":66837,"epoch":"2026-05-25T03:30:51.333408Z","epoch_age_seconds":65966,"freshness":"FRESH","line1":"1 66837U 25280S   26145.14642747 -.00000989  00000+0 -75066-4 0  9995","line2":"2 66837  70.0002 141.8742 0004263 263.9567  96.1107 14.98325891 27521","mean_motion":14.98325891,"eccentricity":0.0004263,"inclination_deg":70.0002,"raan_deg":141.8742,"arg_perigee_deg":263.9567,"mean_anomaly_deg":96.1107,"bstar":-7.5066e-5,"rev_number":2752,"period_min":96.107262688955,"perigee_km":569.1057250707,"apogee_km":575.03147036331,"semimajor_km":6950.205597717,"source":"CELESTRAK","updated_at":"2026-05-25T13:38:21.337118Z"}}